Regional Weather Roundup
Issued by NWS

Home | Current Version | Previous Version | Text Only | Print | Product List | Glossary On
Versions: 1 2 3 4 5 6 7 8 9 10 11 12 13 14 15 16 17 18 19 20 21 22 23 24 25 26 27 28 29 30 31 32 33 34 35 36 37 38 39 40 41 42 43 44 45 46 47 48 49 50
000
ASUS44 KBMX 231410
RWRAL

ALABAMA REGIONAL WEATHER ROUNDUP
NATIONAL WEATHER SERVICE BIRMINGHAM AL
900 AM CDT WED JUL 23 2014

NOTE: "FAIR" INDICATES FEW OR NO CLOUDS BELOW 12,000 FEET
WITH NO SIGNIFICANT WEATHER AND/OR OBSTRUCTIONS TO VISIBILITY.

THE REMARK "TC" DENOTES TEMPERATURE IN DEGREES CELSIUS.

ALZ001>011-014-016>018-020-231500-
NORTH ALABAMA

CITY           SKY/WX    TMP DP  RH WIND       PRES   REMARKS
MUSCLE SHOALS  SUNNY     82  73  74 SE3       30.10S
HUNTSVILLE     MOSUNNY   80  73  79 S5        30.10S
DECATUR        SUNNY     80  74  81 S3        30.10S
HALEYVILLE     FAIR      79  74  84 CALM      30.14R
GADSDEN        CLOUDY    75  70  83 CALM      30.11S
$$

ALZ012-013-022-023-030>036-040>044-231500-
WEST CENTRAL ALABAMA

CITY           SKY/WX    TMP DP  RH WIND       PRES   REMARKS
TUSCALOOSA     SUNNY     80  73  79 CALM      30.09S
$$

ALZ015-024>027-033>036-040>044-231500-
CENTRAL ALABAMA

CITY           SKY/WX    TMP DP  RH WIND       PRES   REMARKS
BIRMINGHAM     MOSUNNY   79  70  74 CALM      30.13S
MONTGOMERY     SUNNY     81  73  76 CALM      30.10R
SHELBY CO ARPT SUNNY     79  72  79 CALM      30.11S
MAXWELL AFB    SUNNY     76  76 100 E2        30.09S
GREENVILLE     FAIR      79  73  82 CALM      30.10S
$$

ALZ019-021-028-029-037-038-045>048-231500-
EAST CENTRAL ALABAMA

CITY           SKY/WX    TMP DP  RH WIND       PRES   REMARKS
ANNISTON       SUNNY     79  71  76 VRB3      30.11S
ALEXANDER CITY SUNNY     78  71  77 CALM      30.13S
AUBURN         SUNNY     77  68  73 CALM      30.15S
$$

ALZ051>064-231500-
SOUTHWEST ALABAMA

CITY           SKY/WX    TMP DP  RH WIND       PRES   REMARKS
MOBILE         MOSUNNY   77  74  90 CALM      30.09S
BROOKLEY FIELD MOSUNNY   77  75  93 N6        30.09R
EVERGREEN      MOSUNNY   78  74  87 CALM      30.10S
$$

ALZ049-050-065>069-231500-
SOUTHEAST ALABAMA

CITY           SKY/WX    TMP DP  RH WIND       PRES   REMARKS
DOTHAN         MOSUNNY   80  74  81 CALM      30.14R
OZARK          SUNNY     80  73  80 VRB1      30.10S
TROY           SUNNY     81  73  76 S3        30.11R
EUFAULA        FAIR      81  74  79 CALM      30.09S
$$


USA.gov is the U.S. government's official web portal to all federal, state and local government web resources and services.